This demonstration page uses our WeatherBlox Daily Observations layout. Learn more.

Left ArrowRight Arrow

Hourly Observations for December 19, 2021

Temp ( °F °C ) Dew Point ( °F °C ) Humidity (%) Winds ( mph kmh ) Pressure ( in mb ) Visibility ( mi km ) Precip ( " mm )
12:56 am 00:56 Cloudy 19 -7 11 -11.7 69 69 Calm 30.42 1030 10 16 0.00 0.00
1:56 am 01:56 Cloudy 20 -6.9 11 -11.5 70 70 SSW 6 9 30.42 1030 10 16 0.00 0.00
2:56 am 02:56 Mostly Cloudy 19 -7.2 11 -11.4 72 72 SSE 6 9 30.41 1030 10 16 0.00 0.00
3:56 am 03:56 Clear 18 -7.9 11 -11.6 75 75 SSE 5 7 30.40 1029 10 16 0.00 0.00
4:56 am 04:56 Clear 16 -9 10 -12 79 79 Calm 30.40 1029 10 16 0.00 0.00
5:56 am 05:56 Clear 16 -9.1 11 -11.8 81 81 SSE 3 6 30.38 1029 10 16 0.00 0.00
6:56 am 06:56 Clear 16 -9.1 11 -11.9 80 80 SSE 6 9 30.39 1029 10 16 0.00 0.00
7:56 am 07:56 Sunny 16 -8.8 11 -11.8 79 79 SSE 6 9 30.38 1029 10 16 0.00 0.00
8:56 am 08:56 Sunny 19 -7.3 13 -10.7 77 77 SSE 9 15 30.36 1028 10 16 0.00 0.00
9:56 am 09:56 Sunny 23 -5.2 15 -9.6 72 72 S 13 20 30.35 1028 10 16 0.00 0.00
10:56 am 10:56 Sunny 26 -3.3 15 -9.3 64 64 S 15 24 30.32 1027 10 16 0.00 0.00
11:56 am 11:56 Sunny 30 -1.2 16 -9.1 55 55 S 16 26 30.27 1025 10 16 0.00 0.00
12:56 pm 12:56 Sunny 33 0.5 17 -8.5 51 51 S 15 24 30.22 1024 10 16 0.00 0.00
1:56 pm 13:56 Sunny 36 2.3 17 -8.1 47 47 S 15 24 30.17 1022 10 16 0.00 0.00
2:56 pm 14:56 Sunny 37 3 14 -10 38 38 S 18 30 30.13 1020 10 16 0.00 0.00
3:56 pm 15:56 Sunny 39 3.8 14 -9.9 36 36 S 16 26 30.12 1020 10 16 0.00 0.00
4:56 pm 16:56 undefined 37 2.9 15 -9.7 39 39 S 15 24 30.12 1020 10 16 0.00 0.00
5:56 pm 17:56 Clear 34 1.3 17 -8.5 48 48 S 8 13 30.13 1020 10 16 0.00 0.00
6:56 pm 18:56 Clear 31 -0.8 18 -7.8 59 59 SE 7 11 30.13 1020 10 16 0.00 0.00
7:56 pm 19:56 Clear 31 -0.7 18 -7.9 59 59 SSE 8 13 30.12 1020 10 16 0.00 0.00
8:56 pm 20:56 undefined 32 -0.2 18 -7.9 57 57 S 8 13 30.12 1020 10 16 0.00 0.00
9:56 pm 21:56 Clear 31 -0.5 19 -7.5 60 60 S 9 15 30.10 1019 10 16 0.00 0.00
10:56 pm 22:56 Clear 28 -2.4 19 -7.5 68 68 S 6 9 30.10 1019 10 16 0.00 0.00
11:56 pm 23:56 Clear 27 -2.7 18 -7.6 69 69 SSE 6 9 30.10 1019 10 16 0.00 0.00

Powered by AerisWeather